Regional Weather Roundup
Issued by NWS Mobile, AL

Home | Current Version | Previous Version | Text Only | Print | Product List | Glossary On
Versions: 1 2 3 4 5 6 7 8 9 10 11 12 13 14 15 16 17 18 19 20 21 22 23 24 25 26 27 28 29 30 31 32 33 34 35 36 37 38 39 40 41 42 43 44 45 46 47 48 49 50
000
ASUS44 KMOB 181110
RWRMOB
REGIONAL WEATHER ROUNDUP
NATIONAL WEATHER SERVICE MOBILE AL
500 AM CST THU DEC 18 2014

NOTE: "FAIR" INDICATES FEW OR NO CLOUDS BELOW 12,000 FEET WITH NO
      SIGNIFICANT WEATHER AND/OR OBSTRUCTIONS TO VISIBILITY.

  * THESE STATIONS ARE PART OF THE UNIVERSITY OF SOUTH ALABAMA
    MESONET AND ARE NOT UNDER NWS OR FAA QUALITY CONTROL.

ALZ061>064-181200-
COASTAL ALABAMA

CITY           SKY/WX    TMP DP  RH WIND       PRES   REMARKS
MOBILE REG APT MOCLDY    42  39  89 NE5       30.19S
BROOKLEY FIELD MOCLDY    45  41  86 N6        30.21R
USA CAMPUS*      N/A     43  41  93 CALM      30.19F
DOG RIVER*     NOT AVBL


CITY           SKY/WX    TMP DP  RH WIND       PRES   REMARKS
MOUNT VERNON*    N/A     37  36  93 CALM      30.20F
SARALAND*      NOT AVBL
BAY MINETTE*   NOT AVBL
LOXLEY*          N/A     41  39  93 NE5       30.19S
ROBERTSDALE*     N/A     41  39  93 N2        30.18S
FAIRHOPE*        N/A     43  39  87 NE6       30.18R
ELBERTA*         N/A     43  39  87 N5        30.18R
FOLEY*           N/A     41  39  93 NW3       30.15R
GRAND BAY*       N/A     41  41 100 N3        30.16S
DAUPHIN ISLND* NOT AVBL
BON SCOUR NWR* NOT AVBL
GULF SHORES    PTCLDY    42  39  89 NE5       30.18R

$$

ALZ051>060-181200-
INTERIOR SOUTHWEST AND SOUTH CENTRAL ALABAMA

CITY           SKY/WX    TMP DP  RH WIND       PRES   REMARKS
GREENVILLE     CLOUDY    40  36  86 N3        30.18F
EVERGREEN      CLOUDY    40  37  89 N5        30.20F
CASTLEBERRY*   NOT AVBL
ATMORE*          N/A     41  39  93 N5        30.20S
DIXIE*           N/A     37  37 100 N3        30.16R
ANDALUSIA/OPP  CLOUDY    43  37  79 N3        30.19R
ANDALUSIA*       N/A     39  39 100 N3        30.17R
FLORALA APT    MOCLDY    41  38  89 N3        30.20R
FLORALA*         N/A     41  39  93 NW3       30.15R

$$

FLZ001>006-181200-
WESTERN FLORIDA PANHANDLE

CITY           SKY/WX    TMP DP  RH WIND       PRES   REMARKS
PENSACOLA      MOCLDY    44  40  85 N5        30.18R
NAS PENSACOLA  MOCLDY    42  40  92 N3        30.18R
MILTON         MOCLDY    42  38  85 N5        30.18S
WHTNG S FIELD  MOCLDY    41  37  86 N5        30.18S


CITY           SKY/WX    TMP DP  RH WIND       PRES   REMARKS
WALNUT HILL*   NOT AVBL
JAY*             N/A     41  37  87 N3        30.19S
DUKE FIELD     MOCLDY    37  35  95 NW6       30.18R
CRESTVIEW      MOCLDY    39  37  92 N3        30.20R
VALPARAISO     MOCLDY    42  39  90 N6        30.17S
DESTIN         MOCLDY    47  42  83 NE5       30.16F

$$

MSZ076-079-181200-
INTERIOR SOUTHEAST MISSISSIPPI

CITY           SKY/WX    TMP DP  RH WIND       PRES   REMARKS
LEAKESVILLE*   NOT AVBL
AGRICOLA*      NOT AVBL

$$

MARINE OBSERVATIONS

STATION/POSITION TIME  TEMP    WIND        PRES    WAVE
                       AIR SEA DIR/SP/G            HT/PER
                 (UTC) (F)     (DEG/KT/KT) (MB)    (FT/S)
PASCAGOULA       1100   48      30/  6/  7 1021.7R
PETIT BOIS ISLND 1100   53      40/  8/ 10 1022.0R
GRAND BAY        1000   46      10/  5     1022.0S
KATRINA CUT      1000   52      40/ 10     1022.4R
CEDAR POINT      1000   49      20/  6     1022.4R
E DAUPHIN ISLAND 1000   53      40/  8/  9 1021.5F
MIDDLE BAY LIGHT 1000   50      30/ 12     1021.3R
USCG MOBILE BAY  1100   46 60  360/  3/  4 1021.4R
STATE DOCKS      1100   46 58              1022.1R
MEAHER PARK      1000   45     360/  3     1022.7S
WEEKS BAY        1000   42                   N/A
FORT MORGAN      1100   52      60/ 11/ 12 1021.3S
12 S ORANGE BCH  1100   56 65   40/ 10/ 12 1020.9S   1
PENSACOLA BAY    1100   47 60  360/  5/  6 1022.2R
64 S DAUPHIN ISL 1100   63 74  100/  4/  6 1020.3F   1
67 S FORT MORGAN 1000   63        CALM     1020.7S

$$

SELECTED LOCATIONS ACROSS THE REGION

CITY           SKY/WX    TMP DP  RH WIND       PRES   REMARKS
NEW ORLEANS    MOCLDY    52  46  80 E5        30.16F
GULFPORT       MOCLDY    46  40  79 N3        30.17S
PASCAGOULA AP  MOCLDY    42  40  92 CALM      30.19R
PASCAGOULA*      N/A     45  39  81 N6        30.18R
HATTIESBURG    CLOUDY    43  40  89 CALM      30.20S
LAUREL         CLOUDY    45  37  76 N5        30.20R
MERIDIAN       CLOUDY    39  37  92 N6        30.22R
JACKSON        CLOUDY    45  39  79 E5        30.19F
MONTGOMERY     MOCLDY    39  36  89 CALM      30.21S
TROY           CLOUDY    40  37  89 NW7       30.20R
KINSTON*       NOT AVBL
GENEVA*          N/A     39  37  93 CALM      30.20R
ASHFORD*         N/A     39  39 100 N3        30.17R
DOTHAN         PTCLDY    40  38  93 NW5       30.20R
PANAMA CITY    MOCLDY    42  39  89 NW3       30.16S

$$



USA.gov is the U.S. government's official web portal to all federal, state and local government web resources and services.